Regional Weather Roundup
Issued by NWS

Home | Current Version | Previous Version | Graphics & Text | Print | Product List | Glossary On
Versions: 1 2 3 4 5 6 7 8 9 10 11 12 13 14 15 16 17 18 19 20 21 22 23 24 25 26 27 28 29 30 31 32 33 34 35 36 37 38 39 40 41 42 43 44 45 46 47 48 49 50
000
ASUS43 KIND 251709
RWRIN

WEATHER ROUNDUP FOR INDIANA
NATIONAL WEATHER SERVICE INDIANAPOLIS IN
1200 PM EST TUE NOV 25 2014

NOTE: "FAIR" INDICATES FEW OR NO CLOUDS BELOW 12,000 FEET WITH NO
SIGNIFICANT WEATHER AND/OR OBSTRUCTIONS TO VISIBILITY.

* - STATION DOES NOT REPORT WEATHER SUCH AS PRECIPITATION OR FOG.

+ - STATION NOT QUALITY CONTROLLED BY THE NATIONAL WEATHER SERVICE.
    USE DATA WITH CAUTION...ESPECIALLY DEWPOINT AND RELATIVE
    HUMIDITY OBSERVATIONS.

INZ001>003-010>013-019-020-251800-
NORTHWEST INDIANA

CITY           SKY/WX    TMP DP  RH WIND       PRES   REMARKS
GARY /AIRPORT/ PTSUNNY   27  18  69 W14       30.12R WCI  15
KNOX *+        CLOUDY    25  20  80 W14       30.10S WCI  13
LA PORTE +     CLOUDY    28  21  75 W12       30.10R WCI  18
MICHIGAN CITY+ CLOUDY    27  19  74 W10       30.10R WCI  17
MONTICELLO +   CLOUDY    26  19  76 W14       30.13S WCI  14
RENSSELAER +   CLOUDY    27  23  86 W12       30.13S WCI  16
VALPARAISO     CLOUDY    25  18  74 W14       30.10R WCI  13

$$

LMZ046-743>745-251800-
SOUTHERN LAKE MICHIGAN

STATION/POSITION TIME  TEMP WIND        PRES
                       AIR  DIR/SP/G
                 (UTC) (F)  (DEG/KT/KT) (MB)
MICHIGAN CITY    1700   25  220/ 20/ 24   N/A

$$

INZ004-005-014>016-021>024-251800-
NORTH CENTRAL INDIANA

CITY           SKY/WX    TMP DP  RH WIND       PRES   REMARKS
ELKHART        CLOUDY    27  19  74 W12G17    30.09R WCI  16
GOSHEN         CLOUDY   N/A N/A N/A W16       30.08R
LOGANSPORT +   CLOUDY    27  21  80 W9        30.13F WCI  17
PERU/GRISSOM   CLOUDY    26  24  89 W18       30.11R WCI  13
ROCHESTER +    CLOUDY    30  21  69 W13       30.11S WCI  20
SOUTH BEND     CLOUDY    26  20  77 SW13      30.08R WCI  15
WARSAW +       CLOUDY    27  19  74 W13       30.09R WCI  16

$$

INZ006>009-017-018-025>027-251800-
NORTHEAST INDIANA

CITY           SKY/WX    TMP DP  RH WIND       PRES   REMARKS
ANGOLA *+      CLOUDY    27  19  74 W10       30.05R WCI  17
AUBURN +       CLOUDY    30  23  74 W12G18    30.07R WCI  21
FORT WAYNE     CLOUDY    28  22  78 W22       30.09R WCI  14
HUNTINGTON +   CLOUDY    27  21  78 W17G25    30.10R WCI  14

$$

INZ028-029-035-036-043>045-051>053-251800-
WEST CENTRAL INDIANA

CITY           SKY/WX    TMP DP  RH WIND       PRES   REMARKS
CRAWFORDSVL +  CLOUDY    27  23  86 W10       30.13  WCI  17
GREENCASTLE +  CLOUDY    30  23  74 W5        30.15R WCI  25
LAFAYETTE      CLOUDY    26  21  81 W12       30.13S WCI  16
TERRE HAUTE    CLOUDY    31  24  75 W8        30.17R WCI  23

$$

INZ030>032-037>040-046>048-054>057-064-065-251800-
CENTRAL INDIANA

CITY           SKY/WX    TMP DP  RH WIND       PRES   REMARKS
ANDERSON       CLOUDY    30  25  80 W12G23    30.21  WCI  21
CP ATTERBURY + CLOUDY    36  27  69 W12       30.14R
COLUMBUS       MOSUNNY   37  30  75 W14       30.13S
FRANKFORT +    CLOUDY    29  25  85 W15       30.14S WCI  17
GREENWOOD *+   CLOUDY    34  23  64 W13       30.14  WCI  25
INDIANAPOLIS   CLOUDY    32  25  75 W15       30.12R WCI  22
-EAGLE CREEK   CLOUDY    31  25  78 W14       30.12R WCI  21
KOKOMO *+      CLOUDY    27  21  80 W16       30.12S WCI  14
MARION +         N/A     28  23  82 W15G22    30.12R WCI  16
MT COMFORT *+  CLOUDY    34  21  60 NW12      30.11F WCI  25
SHELBYVILLE    CLOUDY    36  27  69 W12       30.12R
ZIONSVILLE +   CLOUDY    30  24  77 NW10      30.12F WCI  21

$$

INZ033-034-041-042-049-050-058-059-251800-
EAST CENTRAL INDIANA

CITY           SKY/WX    TMP DP  RH WIND       PRES   REMARKS
MUNCIE         CLOUDY    31  25  78 W10       30.10R WCI  22

$$

INZ060-061-067>069-081>083-085>088-251800-
SOUTHWEST INDIANA

CITY           SKY/WX    TMP DP  RH WIND       PRES   REMARKS
EVANSVILLE     MOSUNNY   39  26  59 W9        30.20S
HUNTINGBURG *+ SUNNY     39  25  56 W13       30.19S
WASHINGTON +   MOSUNNY   37  29  74 W12       30.18R

$$

INZ062-063-066-070>080-084-089>092-251800-
SOUTH CENTRAL AND SOUTHEAST INDIANA

CITY           SKY/WX    TMP DP  RH WIND       PRES   REMARKS
BLOOMINGTON    CLOUDY    34  27  75 W10       30.14S WCI  26
NORTH VERNON + PTSUNNY   39  28  65 SW14      30.13

$$



USA.gov is the U.S. government's official web portal to all federal, state and local government web resources and services.